Location: Aubencheul
(50.0283°N, 3.2672°E)
Time: 22:30:40
(UTC+00:00)

Daily predictions for brighter satellites

Satellite Brightness Start Highest point End
(mag) Time Altitude Azimuth Time Altitude Azimuth Time Altitude Azimuth
Cosmos 1758 Rocket 3.5 16:17:24 10° N 16:21:43 82° E 16:26:00 10° SSE
Lacrosse 4 Rocket 3.3 16:20:26 10° W 16:23:33 21° NW 16:26:39 10° NNE
Cosmos 2098 Rocket 3.4 16:19:18 10° S 16:23:37 59° E 16:28:41 10° NNE
USA 290 2.7 16:22:03 10° NNW 16:25:18 65° WSW 16:28:30 10° SSE
Cosmos 1782 2.5 16:22:59 10° S 16:26:34 75° E 16:30:10 10° NNE
Cosmos 1933 4.3 16:23:46 10° SSE 16:26:58 26° E 16:30:11 10° NNE
Cosmos 2227 Rocket 2.3 16:23:43 10° NNW 16:29:19 58° NE 16:34:53 10° SE
Meteor 1-28 Rocket 3.4 16:26:45 10° NNE 16:29:57 40° E 16:33:06 10° S
Cosmos 2369 Rocket 4.2 16:28:34 10° W 16:32:30 19° NW 16:36:29 10° N
CBERS-1 4.0 16:27:40 10° SSE 16:32:46 77° ENE 16:37:53 10° NNW
Cosmos 783 Rocket 4.5 16:27:56 10° NNW 16:33:16 74° ENE 16:38:33 10° SSE
SJ-12 4.5 16:35:59 10° SE 16:39:17 30° ENE 16:42:38 10° N
Cosmos 2180 Rocket 4.5 16:34:53 10° S 16:40:58 71° E 16:47:08 10° NNE
CENTAUR R/B 3.5 16:35:13 10° W 16:40:59 41° NNW 16:48:09 10° NE
Cosmos 1697 Rocket 3.0 16:36:16 10° S 16:41:39 50° ESE 16:47:04 10° NE
Cosmos 1626 Rocket 4.4 16:38:42 10° NNW 16:42:55 53° W 16:47:05 10° S
Cosmos 2360 4.3 16:37:30 10° SSW 16:43:14 84° WNW 16:49:01 10° NNE
CZ-2D R/B 3.5 16:41:51 10° SE 16:44:36 29° ENE 16:47:24 10° N
Cosmos 1538 Rocket 4.4 16:40:21 10° NNW 16:45:20 41° ENE 16:50:21 10° SE
NOSS 2-3 (C) 4.4 16:42:46 10° S 16:45:32 23° ESE 16:47:48 13° ENE
Cosmos 2266 Rocket 3.9 16:42:37 10° N 16:48:47 75° ENE 16:54:50 10° SSE
Cosmos 1656 4.2 16:45:31 10° SW 16:51:05 59° NW 16:56:44 10° NNE
Cosmos 1606 Rocket 3.8 16:48:38 10° SSE 16:52:51 47° E 16:57:08 10° NNE
Cosmos 1503 Rocket 4.0 16:49:56 10° SSW 16:55:11 85° ESE 17:00:24 10° NNE
Lacrosse 5 rocket 2.3 16:53:21 10° WNW 16:56:35 27° N 16:58:51 15° NE
UNK 3.8 16:54:20 10° NNE 16:58:52 58° ESE 17:03:21 10° S
CZ-4C R/B 3.5 16:52:18 10° NW 16:59:12 64° SW 17:07:43 10° SSE
Cosmos 1484 Rocket 3.7 16:56:30 10° S 16:59:53 46° W 17:03:17 10° NNW
Radarsat 4.5 16:55:46 10° SSE 17:00:55 74° ENE 17:06:07 10° NNW
Thor Agena Rocket 3.6 16:55:52 10° SSE 17:01:04 86° WSW 17:06:15 10° NNW
Cosmos 1743 3.8 16:58:09 10° NNW 17:01:13 39° W 17:04:15 10° SSW
IRS-P3 4.3 16:58:40 10° SE 17:03:47 51° ENE 17:08:55 10° N
NOSS 2-3 (D) 3.7 17:01:16 10° SSW 17:04:46 42° SE 17:07:02 19° ENE
NOSS 2-3 (E) 3.5 17:01:53 10° SSW 17:05:23 46° SE 17:07:43 20° ENE
Cosmos 1354 Rocket 4.0 17:00:57 10° SSW 17:06:12 76° ESE 17:11:27 10° NNE
IGS 5A 4.2 17:03:29 10° S 17:07:21 53° W 17:11:17 10° NNW
NOSS 2-2 (D) 4.5 17:05:25 10° W 17:08:02 24° NW 17:10:11 12° NNE
Cosmos 1777 Rocket 4.3 17:03:13 10° SSW 17:08:27 67° WNW 17:13:41 10° NNE
Cosmos 2151 3.8 17:05:16 10° NNW 17:09:19 52° W 17:13:22 10° S
Cosmos-2242 4.0 17:06:23 10° SE 17:09:49 24° E 17:11:23 19° NE
USA 238 DEB 3.9 17:04:26 10° S 17:10:08 43° ESE 17:14:48 17° ENE
USA 238 4.0 17:04:33 10° S 17:10:16 43° ESE 17:14:54 17° ENE
MOS 1 Rocket 3.5 17:05:47 10° SSE 17:10:42 60° ENE 17:15:53 10° N
Cosmos 1898 Rocket 4.3 17:09:41 10° SSE 17:14:03 29° E 17:16:31 20° ENE
Gbstr 26 Del rocket 2.8 17:10:15 10° WSW 17:14:19 65° SSE 17:16:29 24° E
Cosmos 1726 Rocket 3.7 17:10:50 10° S 17:15:23 60° E 17:19:53 10° NNE
ERS-1 4.3 17:11:49 10° SSE 17:16:47 72° ENE 17:21:45 10° NNW
USA 215 3.7 17:12:07 17° ENE 17:17:01 49° N 17:23:16 10° WNW
Cosmos 2082 3.9 17:12:18 10° NNW 17:17:49 47° NE 17:23:20 10° SE
AQUARIUS 4.0 17:13:54 10° SSE 17:18:16 69° ENE 17:22:41 10° N
SMAP 3.4 17:14:58 10° S 17:19:37 70° WSW 17:24:18 10° NNW
Cosmos 1805 3.6 17:17:22 10° N 17:20:23 30° ENE 17:23:24 10° SE
Cosmos 2297 Rocket 4.3 17:16:29 10° NW 17:21:22 30° WSW 17:26:13 10° SSW
GEOS 3 Rocket 3.7 17:19:10 18° NE 17:23:10 66° SE 17:28:31 10° SSW
Landsat 7 3.8 17:19:05 10° SSE 17:23:44 81° WSW 17:28:25 10° NNW
YAOGAN 1 3.1 17:22:41 10° SE 17:26:32 34° ENE 17:30:25 10° N
Cosmos 923 Rocket 4.4 17:21:57 10° NNW 17:26:52 40° ENE 17:31:44 10° SE
Cosmos 1937 Rocket 4.3 17:25:12 10° SSE 17:29:36 29° E 17:30:51 26° ENE
SL-16 R/B 4.1 17:28:36 10° SE 17:29:26 12° ESE 17:29:26 12° ESE
Cosmos 990 Rocket 4.1 17:28:28 10° SSW 17:33:36 78° WNW 17:38:14 13° NNE
Cosmos 1461 4.0 17:30:23 10° WSW 17:34:00 35° NW 17:36:23 18° NNE
CZ-2D R/B 3.6 17:30:36 10° SE 17:34:35 46° ENE 17:38:33 10° N
SL-16 R/B 3.4 17:28:52 10° N 17:34:50 49° WNW 17:40:44 10° SW
SKYMED 2 3.9 17:35:14 27° NE 17:37:07 43° E 17:41:16 10° S
COSMOS 2455 3.9 17:33:35 10° SSE 17:38:11 23° ESE 17:38:36 23° E
Meteor 2-2 Rocket 4.4 17:33:15 10° SSE 17:38:35 46° E 17:42:46 16° NNE
Okean 1 3.9 17:35:43 10° SSE 17:38:21 32° ESE 17:38:21 32° ESE
Cosmos 1844 Rocket 3.3 17:39:41 10° NNW 17:44:49 34° NE 17:45:49 32° ENE
Cosmos 2219 3.1 17:39:17 10° NNW 17:45:03 83° ENE 17:50:49 10° SSE
Cosmos 1980 Rocket 2.1 17:40:21 10° SSW 17:45:58 71° ESE 17:49:21 25° NE
Cosmos 1953 Rocket 3.8 17:42:49 10° NNW 17:47:16 72° W 17:51:41 10° S
Aureole 1 Rocket 3.4 17:43:16 10° SSW 17:47:54 73° ESE 17:51:47 21° NNE
Meteor 1-26 Rocket 4.1 17:43:55 10° S 17:49:10 56° E 17:52:48 20° NNE
PSLV R/B 3.5 17:50:00 43° ESE 17:50:41 48° ENE 17:54:37 10° N
ARIANE 5 R/B 3.5 17:47:52 10° S 17:52:47 49° W 17:57:48 10° NNW
Cosmos 2263 Rocket 2.7 17:47:34 10° NW 17:53:11 63° WSW 17:58:47 10° SSE
SL-19 R/B 4.2 17:48:17 10° SE 17:53:37 60° ENE 17:59:18 10° N
BREEZE-M DEB (TANK) 3.8 17:54:25 10° SW 17:57:13 25° SSE 17:57:13 25° SSE
COSMO-SKYMED 1 2.9 17:59:08 42° SE 17:59:08 42° SE 18:02:25 10° S
Cosmos 1680 Rocket 3.6 17:53:30 10° NNW 17:58:37 52° ENE 18:00:24 36° ESE
BREEZE-M DEB (TANK) 4.0 17:55:54 10° W 17:59:33 73° SSW 18:06:53 20° ESE
NOSS 3-2 (C) 4.0 17:54:40 10° WSW 17:59:46 45° NNW 18:03:20 23° NNE
NOAA 15 4.5 17:55:41 10° SSE 18:00:58 80° ENE 18:06:17 10° NNW
Meteor 2-10 4.3 17:56:44 10° NNW 18:02:07 76° W 18:07:41 10° S
NOAA 6 4.0 17:57:58 10° SSE 18:02:57 57° ENE 18:07:57 10° N
Cosmos 2369 3.7 17:58:03 10° S 18:03:39 57° ESE 18:05:20 41° ENE
Resurs 01 Rocket 4.0 18:11:53 11° N 18:11:53 11° N 18:12:01 10° N
USA 81 4.3 18:06:00 10° N 18:11:15 69° W 18:16:28 10° S
Cosmos 44 Rocket 3.6 18:06:52 10° NNW 18:11:52 50° NE 18:11:53 50° NE
Cosmos 2227 Rocket 4.3 18:08:19 10° NW 18:12:59 27° WSW 18:17:40 10° SSW
SPOT 1/Viking Rocket 4.0 18:11:41 10° S 18:16:50 62° W 18:22:00 10° NNW
Cosmos 2058 Rocket 3.6 18:19:46 10° SSW 18:24:12 59° WNW 18:26:26 28° N
Cosmos 1697 Rocket 4.0 18:20:41 10° WSW 18:25:48 35° NW 18:29:16 18° N
USA 281 4.5 18:28:12 24° NNE 18:28:12 24° NNE 18:31:56 10° NNW
Cosmos 2333 Rocket 4.2 18:28:32 10° SSE 18:29:34 15° SSE 18:29:34 15° SSE
CENTAUR R/B 4.0 18:27:38 10° WNW 18:33:37 30° N 18:35:36 27° NNE
Meteor 2-11 Rocket 4.4 18:28:02 10° N 18:34:14 86° W 18:40:22 10° S
Lacrosse 5 rocket 3.1 18:30:54 10° NW 18:32:26 21° NW 18:32:26 21° NW
Cosmos 2278 Rocket 4.4 18:32:08 10° N 18:32:43 11° N 18:32:43 11° N
NOSS 2-3 (C) 4.5 18:32:12 10° WSW 18:34:53 35° WNW 18:34:53 35° WNW
Meteor 1-14 Rocket 4.1 18:32:39 10° N 18:38:27 80° ENE 18:39:10 68° SE
Cosmos-2242 4.3 18:42:42 10° SW 18:46:39 37° WNW 18:47:46 31° NW
Cosmos 1898 Rocket 4.3 18:50:52 10° SW 18:55:50 47° WNW 18:56:44 42° NNW
Cosmos 1844 4.0 18:50:15 10° NNW 18:54:37 55° NNW 18:54:37 55° NNW
USA 215 3.4 18:59:28 58° NNE 18:59:30 58° NNE 19:05:54 10° WNW
Cosmos 2112 Rocket 4.4 18:55:08 10° NNW 18:59:47 60° WNW 18:59:47 60° WNW
USA 238 DEB 4.0 18:54:49 10° WSW 19:00:56 54° NW 19:02:15 47° N
USA 238 4.0 18:54:55 10° WSW 19:01:03 55° NW 19:02:21 48° N
YAOGAN 1 4.4 18:58:44 10° SSW 19:02:25 28° W 19:06:08 10° NW
BREEZE-M DEB (TANK) 4.1 19:01:51 10° SW 19:06:16 39° SSW 19:06:16 39° SSW
Cosmos 1937 Rocket 4.4 19:06:18 10° SW 19:10:58 46° WNW 19:10:58 46° WNW
SL-16 R/B 3.7 19:08:52 10° SSW 19:11:20 27° SSW 19:11:20 27° SSW
Cosmos 1745 Rocket 4.3 19:10:09 10° NNW 19:16:13 61° W 19:22:14 10° S
COSMOS 2455 3.5 19:17:28 10° SW 19:21:46 49° SW 19:21:46 49° SW
Cosmos 1844 Rocket 3.7 19:23:27 10° NW 19:27:31 42° WNW 19:27:31 42° WNW
Cosmos 1980 Rocket 3.8 19:25:43 10° W 19:30:28 27° NW 19:31:07 27° NNW
CENTAUR R/B 4.4 20:19:05 10° NW 20:22:41 28° NNW 20:22:41 28° NNW
